Year,Month,Day,Hour,Minute,Value (Times are PST for temperature in C)
2016,08,25,00,00,19.70
2016,08,25,00,01,19.60
2016,08,25,00,02,19.60
2016,08,25,00,03,19.60
2016,08,25,00,04,19.60
2016,08,25,00,05,19.60
2016,08,25,00,06,19.60
2016,08,25,00,07,19.60
2016,08,25,00,08,19.60
2016,08,25,00,09,19.60
2016,08,25,00,10,19.60
2016,08,25,00,11,19.60
2016,08,25,00,12,19.60
2016,08,25,00,13,19.60
2016,08,25,00,14,19.60
2016,08,25,00,15,19.60
2016,08,25,00,16,19.60
2016,08,25,00,17,19.50
2016,08,25,00,18,19.50
2016,08,25,00,19,19.50
2016,08,25,00,20,19.50
2016,08,25,00,21,19.50
2016,08,25,00,22,19.50
2016,08,25,00,23,19.50
2016,08,25,00,24,19.50
2016,08,25,00,25,19.50
2016,08,25,00,26,19.40
2016,08,25,00,27,19.40
2016,08,25,00,28,19.40
2016,08,25,00,29,19.40
2016,08,25,00,30,19.30
2016,08,25,00,31,19.30
2016,08,25,00,32,19.30
2016,08,25,00,33,19.30
2016,08,25,00,34,19.30
2016,08,25,00,35,19.30
2016,08,25,00,36,19.30
2016,08,25,00,37,19.30
2016,08,25,00,38,19.30
2016,08,25,00,39,19.30
2016,08,25,00,40,19.30
2016,08,25,00,41,19.30
2016,08,25,00,42,19.30
2016,08,25,00,43,19.30
2016,08,25,00,44,19.30
2016,08,25,00,45,19.30
2016,08,25,00,46,19.30
2016,08,25,00,47,19.20
2016,08,25,00,48,19.20
2016,08,25,00,49,19.20
2016,08,25,00,50,19.20
2016,08,25,00,51,19.20
2016,08,25,00,52,19.20
2016,08,25,00,53,19.20
2016,08,25,00,54,19.20
2016,08,25,00,55,19.10
2016,08,25,00,56,19.10
2016,08,25,00,57,19.10
2016,08,25,00,58,19.10
2016,08,25,00,59,19.10
2016,08,25,01,00,19.10
2016,08,25,01,01,19.10
2016,08,25,01,02,19.10
2016,08,25,01,03,19.10
2016,08,25,01,04,19.10
2016,08,25,01,05,19.10
2016,08,25,01,06,19.10
2016,08,25,01,07,19.10
2016,08,25,01,08,19.10
2016,08,25,01,09,19.00
2016,08,25,01,10,19.00
2016,08,25,01,11,19.00
2016,08,25,01,12,19.00
2016,08,25,01,13,19.00
2016,08,25,01,14,19.00
2016,08,25,01,15,18.90
2016,08,25,01,16,18.90
2016,08,25,01,17,18.90
2016,08,25,01,18,18.90
2016,08,25,01,19,18.90
2016,08,25,01,20,18.90
2016,08,25,01,21,18.90
2016,08,25,01,22,18.80
2016,08,25,01,23,18.80
2016,08,25,01,24,18.80
2016,08,25,01,25,18.80
2016,08,25,01,26,18.80
2016,08,25,01,27,18.80
2016,08,25,01,28,18.80
2016,08,25,01,29,18.70
2016,08,25,01,30,18.70
2016,08,25,01,31,18.70
2016,08,25,01,32,18.70
2016,08,25,01,33,18.70
2016,08,25,01,34,18.70
2016,08,25,01,35,18.70
2016,08,25,01,36,18.60
2016,08,25,01,37,18.60
2016,08,25,01,38,18.60
2016,08,25,01,39,18.60
2016,08,25,01,40,18.60
2016,08,25,01,41,18.50
2016,08,25,01,42,18.50
2016,08,25,01,43,18.50
2016,08,25,01,44,18.40
2016,08,25,01,45,18.40
2016,08,25,01,46,18.40
2016,08,25,01,47,18.40
2016,08,25,01,48,18.30
2016,08,25,01,49,18.30
2016,08,25,01,50,18.30
2016,08,25,01,51,18.30
2016,08,25,01,52,18.30
2016,08,25,01,53,18.20
2016,08,25,01,54,18.20
2016,08,25,01,55,18.20
2016,08,25,01,56,18.20
2016,08,25,01,57,18.20
2016,08,25,01,58,18.20
2016,08,25,01,59,18.20
2016,08,25,02,00,18.10
2016,08,25,02,01,18.10
2016,08,25,02,02,18.10
2016,08,25,02,03,18.10
2016,08,25,02,04,18.10
2016,08,25,02,05,18.10
2016,08,25,02,06,18.10
2016,08,25,02,07,18.10
2016,08,25,02,08,18.00
2016,08,25,02,09,18.00
2016,08,25,02,10,18.00
2016,08,25,02,11,17.90
2016,08,25,02,12,17.90
2016,08,25,02,13,17.90
2016,08,25,02,14,17.90
2016,08,25,02,15,17.90
2016,08,25,02,16,17.90
2016,08,25,02,17,17.80
2016,08,25,02,18,17.80
2016,08,25,02,19,17.80
2016,08,25,02,20,17.80
2016,08,25,02,21,17.80
2016,08,25,02,22,17.70
2016,08,25,02,23,17.70
2016,08,25,02,24,17.70
2016,08,25,02,25,17.60
2016,08,25,02,26,17.60
2016,08,25,02,27,17.60
2016,08,25,02,28,17.50
2016,08,25,02,29,17.50
2016,08,25,02,30,17.40
2016,08,25,02,31,17.40
2016,08,25,02,32,17.40
2016,08,25,02,33,17.40
2016,08,25,02,34,17.40
2016,08,25,02,35,17.30
2016,08,25,02,36,17.30
2016,08,25,02,37,17.30
2016,08,25,02,38,17.30
2016,08,25,02,39,17.30
2016,08,25,02,40,17.20
2016,08,25,02,41,17.20
2016,08,25,02,42,17.20
2016,08,25,02,43,17.20
2016,08,25,02,44,17.20
2016,08,25,02,45,17.20
2016,08,25,02,46,17.20
2016,08,25,02,47,17.20
2016,08,25,02,48,17.10
2016,08,25,02,49,17.10
2016,08,25,02,50,17.10
2016,08,25,02,51,17.10
2016,08,25,02,52,17.00
2016,08,25,02,53,17.00
2016,08,25,02,54,17.00
2016,08,25,02,55,16.90
2016,08,25,02,56,16.90
2016,08,25,02,57,16.90
2016,08,25,02,58,16.90
2016,08,25,02,59,16.80
2016,08,25,03,00,16.80
2016,08,25,03,01,16.80
2016,08,25,03,02,16.80
2016,08,25,03,03,16.80
2016,08,25,03,04,16.70
2016,08,25,03,05,16.70
2016,08,25,03,06,16.70
2016,08,25,03,07,16.60
2016,08,25,03,08,16.60
2016,08,25,03,09,16.60
2016,08,25,03,10,16.60
2016,08,25,03,11,16.50
2016,08,25,03,12,16.50
2016,08,25,03,13,16.50
2016,08,25,03,14,16.40
2016,08,25,03,15,16.40
2016,08,25,03,16,16.40
2016,08,25,03,17,16.40
2016,08,25,03,18,16.40
2016,08,25,03,19,16.40
2016,08,25,03,20,16.40
2016,08,25,03,21,16.40
2016,08,25,03,22,16.40
2016,08,25,03,23,16.30
2016,08,25,03,24,16.30
2016,08,25,03,25,16.20
2016,08,25,03,26,16.20
2016,08,25,03,27,16.20
2016,08,25,03,28,16.10
2016,08,25,03,29,16.10
2016,08,25,03,30,16.10
2016,08,25,03,31,16.10
2016,08,25,03,32,16.00
2016,08,25,03,33,16.00
2016,08,25,03,34,16.10
2016,08,25,03,35,16.10
2016,08,25,03,36,16.10
2016,08,25,03,37,16.10
2016,08,25,03,38,16.10
2016,08,25,03,39,16.10
2016,08,25,03,40,16.20
2016,08,25,03,41,16.20
2016,08,25,03,42,16.20
2016,08,25,03,43,16.20
2016,08,25,03,44,16.20
2016,08,25,03,45,16.20
2016,08,25,03,46,16.20
2016,08,25,03,47,16.20
2016,08,25,03,48,16.20
2016,08,25,03,49,16.20
2016,08,25,03,50,16.20
2016,08,25,03,51,16.20
2016,08,25,03,52,16.20
2016,08,25,03,53,16.20
2016,08,25,03,54,16.20
2016,08,25,03,55,16.20
2016,08,25,03,56,16.20
2016,08,25,03,57,16.20
2016,08,25,03,58,16.20
2016,08,25,03,59,16.20
2016,08,25,04,00,16.20
2016,08,25,04,01,16.20
2016,08,25,04,02,16.20
2016,08,25,04,03,16.20
2016,08,25,04,04,16.10
2016,08,25,04,05,16.10
2016,08,25,04,06,16.10
2016,08,25,04,07,16.10
2016,08,25,04,08,16.10
2016,08,25,04,09,16.00
2016,08,25,04,10,16.00
2016,08,25,04,11,15.90
2016,08,25,04,12,15.90
2016,08,25,04,13,15.90
2016,08,25,04,14,15.90
2016,08,25,04,15,15.90
2016,08,25,04,16,15.90
2016,08,25,04,17,15.90
2016,08,25,04,18,15.80
2016,08,25,04,19,15.80
2016,08,25,04,20,15.80
2016,08,25,04,21,15.80
2016,08,25,04,22,15.80
2016,08,25,04,23,15.80
2016,08,25,04,24,15.80
2016,08,25,04,25,15.80
2016,08,25,04,26,15.80
2016,08,25,04,27,15.80
2016,08,25,04,28,15.80
2016,08,25,04,29,15.80
2016,08,25,04,30,15.80
2016,08,25,04,31,15.80
2016,08,25,04,32,15.80
2016,08,25,04,33,15.80
2016,08,25,04,34,15.80
2016,08,25,04,35,15.80
2016,08,25,04,36,15.80
2016,08,25,04,37,15.80
2016,08,25,04,38,15.80
2016,08,25,04,39,15.80
2016,08,25,04,40,15.80
2016,08,25,04,41,15.80
2016,08,25,04,42,15.80
2016,08,25,04,43,15.90
2016,08,25,04,44,15.90
2016,08,25,04,45,15.80
2016,08,25,04,46,15.80
2016,08,25,04,47,15.80
2016,08,25,04,48,15.80
2016,08,25,04,49,15.80
2016,08,25,04,50,15.70
2016,08,25,04,51,15.70
2016,08,25,04,52,15.70
2016,08,25,04,53,15.70
2016,08,25,04,54,15.60
2016,08,25,04,55,15.60
2016,08,25,04,56,15.60
2016,08,25,04,57,15.60
2016,08,25,04,58,15.60
2016,08,25,04,59,15.60
2016,08,25,05,00,15.60
2016,08,25,05,01,15.60
2016,08,25,05,02,15.60
2016,08,25,05,03,15.60
2016,08,25,05,04,15.60
2016,08,25,05,05,15.60
2016,08,25,05,06,15.60
2016,08,25,05,07,15.60
2016,08,25,05,08,15.50
2016,08,25,05,09,15.50
2016,08,25,05,10,15.50
2016,08,25,05,11,15.50
2016,08,25,05,12,15.50
2016,08,25,05,13,15.40
2016,08,25,05,14,15.40
2016,08,25,05,15,15.40
2016,08,25,05,16,15.40
2016,08,25,05,17,15.40
2016,08,25,05,18,15.30
2016,08,25,05,19,15.30
2016,08,25,05,20,15.30
2016,08,25,05,21,15.30
2016,08,25,05,22,15.30
2016,08,25,05,23,15.30
2016,08,25,05,24,15.30
2016,08,25,05,25,15.30
2016,08,25,05,26,15.30
2016,08,25,05,27,15.30
2016,08,25,05,28,15.30
2016,08,25,05,29,15.30
2016,08,25,05,30,15.30
2016,08,25,05,31,15.30
2016,08,25,05,32,15.30
2016,08,25,05,33,15.30
2016,08,25,05,34,15.30
2016,08,25,05,35,15.30
2016,08,25,05,36,15.30
2016,08,25,05,37,15.30
2016,08,25,05,38,15.30
2016,08,25,05,39,15.30
2016,08,25,05,40,15.30
2016,08,25,05,41,15.30
2016,08,25,05,42,15.30
2016,08,25,05,43,15.30
2016,08,25,05,44,15.20
2016,08,25,05,45,15.20
2016,08,25,05,46,15.10
2016,08,25,05,47,15.00
2016,08,25,05,48,15.00
2016,08,25,05,49,15.00
2016,08,25,05,50,15.00
2016,08,25,05,51,15.00
2016,08,25,05,52,15.00
2016,08,25,05,53,15.00
2016,08,25,05,54,15.00
2016,08,25,05,55,15.00
2016,08,25,05,56,15.00
2016,08,25,05,57,15.00
2016,08,25,05,58,15.00
2016,08,25,05,59,15.00
2016,08,25,06,00,15.00
2016,08,25,06,01,15.00
2016,08,25,06,02,15.00
2016,08,25,06,03,15.00
2016,08,25,06,04,15.00
2016,08,25,06,05,15.00
2016,08,25,06,06,15.00
2016,08,25,06,07,15.00
2016,08,25,06,08,15.00
2016,08,25,06,09,15.00
2016,08,25,06,10,15.00
2016,08,25,06,11,15.00
2016,08,25,06,12,15.00
2016,08,25,06,13,15.00
2016,08,25,06,14,15.00
2016,08,25,06,15,15.00
2016,08,25,06,16,15.00
2016,08,25,06,17,15.00
2016,08,25,06,18,15.00
2016,08,25,06,19,15.00
2016,08,25,06,20,15.00
2016,08,25,06,21,15.00
2016,08,25,06,22,15.00
2016,08,25,06,23,15.00
2016,08,25,06,24,15.00
2016,08,25,06,25,15.00
2016,08,25,06,26,15.00
2016,08,25,06,27,15.00
2016,08,25,06,28,14.90
2016,08,25,06,29,14.90
2016,08,25,06,30,14.90
2016,08,25,06,31,14.90
2016,08,25,06,32,14.90
2016,08,25,06,33,14.90
2016,08,25,06,34,14.90
2016,08,25,06,35,15.00
2016,08,25,06,36,15.00
2016,08,25,06,37,15.00
2016,08,25,06,38,15.00
2016,08,25,06,39,15.00
2016,08,25,06,40,15.00
2016,08,25,06,41,15.00
2016,08,25,06,42,15.00
2016,08,25,06,43,15.00
2016,08,25,06,44,15.00
2016,08,25,06,45,15.00
2016,08,25,06,46,15.00
2016,08,25,06,47,15.00
2016,08,25,06,48,15.00
2016,08,25,06,49,15.00
2016,08,25,06,50,15.00
2016,08,25,06,51,15.00
2016,08,25,06,52,15.00
2016,08,25,06,53,15.00
2016,08,25,06,54,15.00
2016,08,25,06,55,15.00
2016,08,25,06,56,15.00
2016,08,25,06,57,15.00
2016,08,25,06,58,15.00
2016,08,25,06,59,15.00
2016,08,25,07,00,15.00
2016,08,25,07,01,15.00
2016,08,25,07,02,15.00
2016,08,25,07,03,15.00
2016,08,25,07,04,15.00
2016,08,25,07,05,15.00
2016,08,25,07,06,15.00
2016,08,25,07,07,15.00
2016,08,25,07,08,15.00
2016,08,25,07,09,15.00
2016,08,25,07,10,15.00
2016,08,25,07,11,15.00
2016,08,25,07,12,15.00
2016,08,25,07,13,15.00
2016,08,25,07,14,15.00
2016,08,25,07,15,15.00
2016,08,25,07,16,15.00
2016,08,25,07,17,15.00
2016,08,25,07,18,15.00
2016,08,25,07,19,15.10
2016,08,25,07,20,15.10
2016,08,25,07,21,15.10
2016,08,25,07,22,15.10
2016,08,25,07,23,15.10
2016,08,25,07,24,15.10
2016,08,25,07,25,15.20
2016,08,25,07,26,15.20
2016,08,25,07,27,15.20
2016,08,25,07,28,15.20
2016,08,25,07,29,15.20
2016,08,25,07,30,15.20
2016,08,25,07,31,15.30
2016,08,25,07,32,15.30
2016,08,25,07,33,15.30
2016,08,25,07,34,15.30
2016,08,25,07,35,15.30
2016,08,25,07,36,15.30
2016,08,25,07,37,15.40
2016,08,25,07,38,15.40
2016,08,25,07,39,15.40
2016,08,25,07,40,15.50
2016,08,25,07,41,15.50
2016,08,25,07,42,15.60
2016,08,25,07,43,15.60
2016,08,25,07,44,15.60
2016,08,25,07,45,15.60
2016,08,25,07,46,15.70
2016,08,25,07,47,15.70
2016,08,25,07,48,15.80
2016,08,25,07,49,15.80
2016,08,25,07,50,15.80
2016,08,25,07,51,15.90
2016,08,25,07,52,15.90
2016,08,25,07,53,15.90
2016,08,25,07,54,16.00
2016,08,25,07,55,16.10
2016,08,25,07,56,16.10
2016,08,25,07,57,16.20
2016,08,25,07,58,16.20
2016,08,25,07,59,16.20
2016,08,25,08,00,16.30
2016,08,25,08,01,16.30
2016,08,25,08,02,16.30
2016,08,25,08,03,16.40
2016,08,25,08,04,16.40
2016,08,25,08,05,16.50
2016,08,25,08,06,16.50
2016,08,25,08,07,16.60
2016,08,25,08,08,16.60
2016,08,25,08,09,16.70
2016,08,25,08,10,16.70
2016,08,25,08,11,16.80
2016,08,25,08,12,16.80
2016,08,25,08,13,16.80
2016,08,25,08,14,16.90
2016,08,25,08,15,17.00
2016,08,25,08,16,17.00
2016,08,25,08,17,17.10
2016,08,25,08,18,17.10
2016,08,25,08,19,17.10
2016,08,25,08,20,17.20
2016,08,25,08,21,17.20
2016,08,25,08,22,17.20
2016,08,25,08,23,17.20
2016,08,25,08,24,17.30
2016,08,25,08,25,17.30
2016,08,25,08,26,17.30
2016,08,25,08,27,17.30
2016,08,25,08,28,17.40
2016,08,25,08,29,17.40
2016,08,25,08,30,17.50
2016,08,25,08,31,17.50
2016,08,25,08,32,17.60
2016,08,25,08,33,17.60
2016,08,25,08,34,17.70
2016,08,25,08,35,17.80
2016,08,25,08,36,17.80
2016,08,25,08,37,17.80
2016,08,25,08,38,17.90
2016,08,25,08,39,17.90
2016,08,25,08,40,18.00
2016,08,25,08,41,18.00
2016,08,25,08,42,18.10
2016,08,25,08,43,18.20
2016,08,25,08,44,18.20
2016,08,25,08,45,18.30
2016,08,25,08,46,18.30
2016,08,25,08,47,18.40
2016,08,25,08,48,18.50
2016,08,25,08,49,18.60
2016,08,25,08,50,18.70
2016,08,25,08,51,18.80
2016,08,25,08,52,18.80
2016,08,25,08,53,18.90
2016,08,25,08,54,19.00
2016,08,25,08,55,19.10
2016,08,25,08,56,19.20
2016,08,25,08,57,19.30
2016,08,25,08,58,19.30
2016,08,25,08,59,19.40
2016,08,25,09,00,19.60
2016,08,25,09,01,19.60
2016,08,25,09,02,19.70
2016,08,25,09,03,19.80
2016,08,25,09,04,19.80
2016,08,25,09,05,19.90
2016,08,25,09,06,20.00
2016,08,25,09,07,20.00
2016,08,25,09,08,20.10
2016,08,25,09,09,20.20
2016,08,25,09,10,20.30
2016,08,25,09,11,20.30
2016,08,25,09,12,20.40
2016,08,25,09,13,20.40
2016,08,25,09,14,20.50
2016,08,25,09,15,20.60
2016,08,25,09,16,20.60
2016,08,25,09,17,20.70
2016,08,25,09,18,20.80
2016,08,25,09,19,20.80
2016,08,25,09,20,20.90
2016,08,25,09,21,21.00
2016,08,25,09,22,21.10
2016,08,25,09,23,21.20
2016,08,25,09,24,21.30
2016,08,25,09,25,21.30
2016,08,25,09,26,21.40
2016,08,25,09,27,21.40
2016,08,25,09,28,21.50
2016,08,25,09,29,21.50
2016,08,25,09,30,21.60
2016,08,25,09,31,21.60
2016,08,25,09,32,21.60
2016,08,25,09,33,21.70
2016,08,25,09,34,21.70
2016,08,25,09,35,21.80
2016,08,25,09,36,21.80
2016,08,25,09,37,21.80
2016,08,25,09,38,21.90
2016,08,25,09,39,21.90
2016,08,25,09,40,22.00
2016,08,25,09,41,22.10
2016,08,25,09,42,22.20
2016,08,25,09,43,22.20
2016,08,25,09,44,22.30
2016,08,25,09,45,22.40
2016,08,25,09,46,22.50
2016,08,25,09,47,22.60
2016,08,25,09,48,22.70
2016,08,25,09,49,22.80
2016,08,25,09,50,22.90
2016,08,25,09,51,23.00
2016,08,25,09,52,23.10
2016,08,25,09,53,23.20
2016,08,25,09,54,23.40
2016,08,25,09,55,23.50
2016,08,25,09,56,23.70
2016,08,25,09,57,23.70
2016,08,25,09,58,23.80
2016,08,25,09,59,23.90
2016,08,25,10,00,23.90
2016,08,25,10,01,24.00
2016,08,25,10,02,24.00
2016,08,25,10,03,24.00
2016,08,25,10,04,24.10
2016,08,25,10,05,24.10
2016,08,25,10,06,24.20
2016,08,25,10,07,24.30
2016,08,25,10,08,24.50
2016,08,25,10,09,24.50
2016,08,25,10,10,24.60
2016,08,25,10,11,24.70
2016,08,25,10,12,24.70
2016,08,25,10,13,24.70
2016,08,25,10,14,24.80
2016,08,25,10,15,24.90
2016,08,25,10,16,25.00
2016,08,25,10,17,25.00
2016,08,25,10,18,25.10
2016,08,25,10,19,25.10
2016,08,25,10,20,25.20
2016,08,25,10,21,25.30
2016,08,25,10,22,25.30
2016,08,25,10,23,25.40
2016,08,25,10,24,25.50
2016,08,25,10,25,25.50
2016,08,25,10,26,25.60
2016,08,25,10,27,25.70
2016,08,25,10,28,25.80
2016,08,25,10,29,25.80
2016,08,25,10,30,25.90
2016,08,25,10,31,25.90
2016,08,25,10,32,26.00
2016,08,25,10,33,26.20
2016,08,25,10,34,26.30
2016,08,25,10,35,26.40
2016,08,25,10,36,26.40
2016,08,25,10,37,26.40
2016,08,25,10,38,26.40
2016,08,25,10,39,26.40
2016,08,25,10,40,26.50
2016,08,25,10,41,26.50
2016,08,25,10,42,26.50
2016,08,25,10,43,26.50
2016,08,25,10,44,26.60
2016,08,25,10,45,26.70
2016,08,25,10,46,26.70
2016,08,25,10,47,26.80
2016,08,25,10,48,26.90
2016,08,25,10,49,27.00
2016,08,25,10,50,27.10
2016,08,25,10,51,27.20
2016,08,25,10,52,27.30
2016,08,25,10,53,27.30
2016,08,25,10,54,27.30
2016,08,25,10,55,27.40
2016,08,25,10,56,27.50
2016,08,25,10,57,27.50
2016,08,25,10,58,27.60
2016,08,25,10,59,27.60
2016,08,25,11,00,27.60
2016,08,25,11,01,27.70
2016,08,25,11,02,27.70
2016,08,25,11,03,27.70
2016,08,25,11,04,27.80
2016,08,25,11,05,27.80
2016,08,25,11,06,27.80
2016,08,25,11,07,27.90
2016,08,25,11,08,27.90
2016,08,25,11,09,27.90
2016,08,25,11,10,28.00
2016,08,25,11,11,28.00
2016,08,25,11,12,28.10
2016,08,25,11,13,28.10
2016,08,25,11,14,28.10
2016,08,25,11,15,28.20
2016,08,25,11,16,28.20
2016,08,25,11,17,28.20
2016,08,25,11,18,28.30
2016,08,25,11,19,28.30
2016,08,25,11,20,28.30
2016,08,25,11,21,28.30
2016,08,25,11,22,28.40
2016,08,25,11,23,28.40
2016,08,25,11,24,28.40
2016,08,25,11,25,28.40
2016,08,25,11,26,28.50
2016,08,25,11,27,28.50
2016,08,25,11,28,28.50
2016,08,25,11,29,28.60
2016,08,25,11,30,28.60
2016,08,25,11,31,28.60
2016,08,25,11,32,28.60
2016,08,25,11,33,28.70
2016,08,25,11,34,28.70
2016,08,25,11,35,28.80
2016,08,25,11,36,28.80
2016,08,25,11,37,28.80
2016,08,25,11,38,28.80
2016,08,25,11,39,28.80
2016,08,25,11,40,28.80
2016,08,25,11,41,28.80
2016,08,25,11,42,28.70
2016,08,25,11,43,28.70
2016,08,25,11,44,28.80
2016,08,25,11,45,28.80
2016,08,25,11,46,28.80
2016,08,25,11,47,28.90
2016,08,25,11,48,28.90
2016,08,25,11,49,29.00
2016,08,25,11,50,29.00
2016,08,25,11,51,29.10
2016,08,25,11,52,29.10
2016,08,25,11,53,29.10
2016,08,25,11,54,29.10
2016,08,25,11,55,29.10
2016,08,25,11,56,29.10
2016,08,25,11,57,29.20
2016,08,25,11,58,29.20
2016,08,25,11,59,29.20
2016,08,25,12,00,29.30
2016,08,25,12,01,29.30
2016,08,25,12,02,29.30
2016,08,25,12,03,29.30
2016,08,25,12,04,29.30
2016,08,25,12,05,29.30
2016,08,25,12,06,29.30
2016,08,25,12,07,29.30
2016,08,25,12,08,29.30
2016,08,25,12,09,29.30
2016,08,25,12,10,29.40
2016,08,25,12,11,29.40
2016,08,25,12,12,29.40
2016,08,25,12,13,29.40
2016,08,25,12,14,29.40
2016,08,25,12,15,29.40
2016,08,25,12,16,29.30
2016,08,25,12,17,29.30
2016,08,25,12,18,29.20
2016,08,25,12,19,29.20
2016,08,25,12,20,29.20
2016,08,25,12,21,29.20
2016,08,25,12,22,29.20
2016,08,25,12,23,29.20
2016,08,25,12,24,29.20
2016,08,25,12,25,29.20
2016,08,25,12,26,29.20
2016,08,25,12,27,29.20
2016,08,25,12,28,29.20
2016,08,25,12,29,29.20
2016,08,25,12,30,29.20
2016,08,25,12,31,29.20
2016,08,25,12,32,29.30
2016,08,25,12,33,29.30
2016,08,25,12,34,29.30
2016,08,25,12,35,29.30
2016,08,25,12,36,29.30
2016,08,25,12,37,29.40
2016,08,25,12,38,29.50
2016,08,25,12,39,29.50
2016,08,25,12,40,29.60
2016,08,25,12,41,29.70
2016,08,25,12,42,29.70
2016,08,25,12,43,29.70
2016,08,25,12,44,29.80
2016,08,25,12,45,29.80
2016,08,25,12,46,29.80
2016,08,25,12,47,29.90
2016,08,25,12,48,29.90
2016,08,25,12,49,29.90
2016,08,25,12,50,29.90
2016,08,25,12,51,30.00
2016,08,25,12,52,30.00
2016,08,25,12,53,30.00
2016,08,25,12,54,30.00
2016,08,25,12,55,30.00
2016,08,25,12,56,30.10
2016,08,25,12,57,30.10
2016,08,25,12,58,30.10
2016,08,25,12,59,30.20
2016,08,25,13,00,30.20
2016,08,25,13,01,30.20
2016,08,25,13,02,30.30
2016,08,25,13,03,30.30
2016,08,25,13,04,30.40
2016,08,25,13,05,30.50
2016,08,25,13,06,30.50
2016,08,25,13,07,30.50
2016,08,25,13,08,30.50
2016,08,25,13,09,30.50
2016,08,25,13,10,30.50
2016,08,25,13,11,30.40
2016,08,25,13,12,30.40
2016,08,25,13,13,30.40
2016,08,25,13,14,30.50
2016,08,25,13,15,30.50
2016,08,25,13,16,30.60
2016,08,25,13,17,30.60
2016,08,25,13,18,30.60
2016,08,25,13,19,30.70
2016,08,25,13,20,30.60
2016,08,25,13,21,30.60
2016,08,25,13,22,30.60
2016,08,25,13,23,30.60
2016,08,25,13,24,30.60
2016,08,25,13,25,30.60
2016,08,25,13,26,30.70
2016,08,25,13,27,30.60
2016,08,25,13,28,30.60
2016,08,25,13,29,30.60
2016,08,25,13,30,30.60
2016,08,25,13,31,30.70
2016,08,25,13,32,30.60
2016,08,25,13,33,30.60
2016,08,25,13,34,30.60
2016,08,25,13,35,30.60
2016,08,25,13,36,30.60
2016,08,25,13,37,30.60
2016,08,25,13,38,30.60
2016,08,25,13,39,30.60
2016,08,25,13,40,30.70
2016,08,25,13,41,30.70
2016,08,25,13,42,30.80
2016,08,25,13,43,30.80
2016,08,25,13,44,30.80
2016,08,25,13,45,30.90
2016,08,25,13,46,30.90
2016,08,25,13,47,30.90
2016,08,25,13,48,31.00
2016,08,25,13,49,31.00
2016,08,25,13,50,31.10
2016,08,25,13,51,31.10
2016,08,25,13,52,31.10
2016,08,25,13,53,31.10
2016,08,25,13,54,31.00
2016,08,25,13,55,30.90
2016,08,25,13,56,30.90
2016,08,25,13,57,31.00
2016,08,25,13,58,31.00
2016,08,25,13,59,31.00
2016,08,25,14,00,31.00
2016,08,25,14,01,31.00
2016,08,25,14,02,30.90
2016,08,25,14,03,30.90
2016,08,25,14,04,30.90
2016,08,25,14,05,30.90
2016,08,25,14,06,30.90
2016,08,25,14,07,30.80
2016,08,25,14,08,30.80
2016,08,25,14,09,30.80
2016,08,25,14,10,30.80
2016,08,25,14,11,30.90
2016,08,25,14,12,30.90
2016,08,25,14,13,30.90
2016,08,25,14,14,31.00
2016,08,25,14,15,31.10
2016,08,25,14,16,31.20
2016,08,25,14,17,31.20
2016,08,25,14,18,31.20
2016,08,25,14,19,31.20
2016,08,25,14,20,31.10
2016,08,25,14,21,31.10
2016,08,25,14,22,31.00
2016,08,25,14,23,30.90
2016,08,25,14,24,30.90
2016,08,25,14,25,30.80
2016,08,25,14,26,30.80
2016,08,25,14,27,30.90
2016,08,25,14,28,30.90
2016,08,25,14,29,30.90
2016,08,25,14,30,31.00
2016,08,25,14,31,31.10
2016,08,25,14,32,31.10
2016,08,25,14,33,31.20
2016,08,25,14,34,31.30
2016,08,25,14,35,31.30
2016,08,25,14,36,31.40
2016,08,25,14,37,31.50
2016,08,25,14,38,31.60
2016,08,25,14,39,31.70
2016,08,25,14,40,31.80
2016,08,25,14,41,31.90
2016,08,25,14,42,31.90
2016,08,25,14,43,32.00
2016,08,25,14,44,32.10
2016,08,25,14,45,32.20
2016,08,25,14,46,32.20
2016,08,25,14,47,32.30
2016,08,25,14,48,32.30
2016,08,25,14,49,32.30
2016,08,25,14,50,32.40
2016,08,25,14,51,32.40
2016,08,25,14,52,32.40
2016,08,25,14,53,32.40
2016,08,25,14,54,32.50
2016,08,25,14,55,32.50
2016,08,25,14,56,32.60
2016,08,25,14,57,32.60
2016,08,25,14,58,32.50
2016,08,25,14,59,32.40
2016,08,25,15,00,32.30
2016,08,25,15,01,32.30
2016,08,25,15,02,32.20
2016,08,25,15,03,32.20
2016,08,25,15,04,32.20
2016,08,25,15,05,32.20
2016,08,25,15,06,32.20
2016,08,25,15,07,32.20
2016,08,25,15,08,32.20
2016,08,25,15,09,32.30
2016,08,25,15,10,32.40
2016,08,25,15,11,32.40
2016,08,25,15,12,32.50
2016,08,25,15,13,32.50
2016,08,25,15,14,32.60
2016,08,25,15,15,32.60
2016,08,25,15,16,32.60
2016,08,25,15,17,32.70
2016,08,25,15,18,32.70
2016,08,25,15,19,32.70
2016,08,25,15,20,32.70
2016,08,25,15,21,32.60
2016,08,25,15,22,32.50
2016,08,25,15,23,32.40
2016,08,25,15,24,32.40
2016,08,25,15,25,32.40
2016,08,25,15,26,32.40
2016,08,25,15,27,32.40
2016,08,25,15,28,32.50
2016,08,25,15,29,32.40
2016,08,25,15,30,32.40
2016,08,25,15,31,32.40
2016,08,25,15,32,32.40
2016,08,25,15,33,32.30
2016,08,25,15,34,32.30
2016,08,25,15,35,32.30
2016,08,25,15,36,32.30
2016,08,25,15,37,32.30
2016,08,25,15,38,32.30
2016,08,25,15,39,32.30
2016,08,25,15,40,32.30
2016,08,25,15,41,32.30
2016,08,25,15,42,32.30
2016,08,25,15,43,32.30
2016,08,25,15,44,32.20
2016,08,25,15,45,32.30
2016,08,25,15,46,32.20
2016,08,25,15,47,32.20
2016,08,25,15,48,32.30
2016,08,25,15,49,32.30
2016,08,25,15,50,32.30
2016,08,25,15,51,32.30
2016,08,25,15,52,32.20
2016,08,25,15,53,32.20
2016,08,25,15,54,32.30
2016,08,25,15,55,32.30
2016,08,25,15,56,32.30
2016,08,25,15,57,32.30
2016,08,25,15,58,32.30
2016,08,25,15,59,32.30
2016,08,25,16,00,32.30
2016,08,25,16,01,32.30
2016,08,25,16,02,32.30
2016,08,25,16,03,32.30
2016,08,25,16,04,32.30
2016,08,25,16,05,32.30
2016,08,25,16,06,32.30
2016,08,25,16,07,32.30
2016,08,25,16,08,32.20
2016,08,25,16,09,32.20
2016,08,25,16,10,32.20
2016,08,25,16,11,32.20
2016,08,25,16,12,32.20
2016,08,25,16,13,32.20
2016,08,25,16,14,32.20
2016,08,25,16,15,32.30
2016,08,25,16,16,32.30
2016,08,25,16,17,32.30
2016,08,25,16,18,32.30
2016,08,25,16,19,32.30
2016,08,25,16,20,32.30
2016,08,25,16,21,32.40
2016,08,25,16,22,32.40
2016,08,25,16,23,32.50
2016,08,25,16,24,32.50
2016,08,25,16,25,32.50
2016,08,25,16,26,32.50
2016,08,25,16,27,32.50
2016,08,25,16,28,32.50
2016,08,25,16,29,32.50
2016,08,25,16,30,32.50
2016,08,25,16,31,32.40
2016,08,25,16,32,32.40
2016,08,25,16,33,32.40
2016,08,25,16,34,32.40
2016,08,25,16,35,32.40
2016,08,25,16,36,32.40
2016,08,25,16,37,32.40
2016,08,25,16,38,32.40
2016,08,25,16,39,32.30
2016,08,25,16,40,32.20
2016,08,25,16,41,32.30
2016,08,25,16,42,32.30
2016,08,25,16,43,32.30
2016,08,25,16,44,32.30
2016,08,25,16,45,32.40
2016,08,25,16,46,32.40
2016,08,25,16,47,32.40
2016,08,25,16,48,32.40
2016,08,25,16,49,32.40
2016,08,25,16,50,32.30
2016,08,25,16,51,32.30
2016,08,25,16,52,32.30
2016,08,25,16,53,32.30
2016,08,25,16,54,32.30
2016,08,25,16,55,32.30
2016,08,25,16,56,32.30
2016,08,25,16,57,32.30
2016,08,25,16,58,32.30
2016,08,25,16,59,32.20
2016,08,25,17,00,32.20
2016,08,25,17,01,32.10
2016,08,25,17,02,32.10
2016,08,25,17,03,32.10
2016,08,25,17,04,32.00
2016,08,25,17,05,32.00
2016,08,25,17,06,31.90
2016,08,25,17,07,31.90
2016,08,25,17,08,31.80
2016,08,25,17,09,31.80
2016,08,25,17,10,31.80
2016,08,25,17,11,31.90
2016,08,25,17,12,31.90
2016,08,25,17,13,31.80
2016,08,25,17,14,31.80
2016,08,25,17,15,31.80
2016,08,25,17,16,31.80
2016,08,25,17,17,31.80
2016,08,25,17,18,31.80
2016,08,25,17,19,31.80